VOI176T MMSD-MMTJ

Flight info

Callsign VOI176T
Flight time 1h 43m
Altitude 36000
Route ANEGO1A ANEGO UL312 SQN UT64 TOVES TOVES2B
Aircraft A320/M-SDE3FGHIRWY/LB1

Departure

Time 2026-04-29 21:15
Airport Los Cabos International Airport (MMSD)

Arrival

Time 2026-04-29 22:58
Airport General Abelardo L. Rodriguez International Airport (MMTJ)
Time Latitude Longitude Altitude Speed Heading
2026-04-29 20:38 23.15681 -109.71774 368 ft 0 kts 81°
2026-04-29 21:01 23.15681 -109.71778 367 ft 2 kts 81°
2026-04-29 21:01 23.15679 -109.71797 367 ft 3 kts 89°
2026-04-29 21:01 23.15680 -109.71819 367 ft 3 kts 107°
2026-04-29 21:02 23.15688 -109.71837 370 ft 3 kts 150°
2026-04-29 21:02 23.15696 -109.71841 369 ft 0 kts 173°
2026-04-29 21:06 23.15694 -109.71841 370 ft 1 kts 173°
2026-04-29 21:06 23.15671 -109.71838 371 ft 5 kts 173°
2026-04-29 21:06 23.15628 -109.71846 368 ft 8 kts 227°
2026-04-29 21:07 23.15605 -109.71902 366 ft 8 kts 301°
2026-04-29 21:07 23.15650 -109.71915 367 ft 7 kts
2026-04-29 21:07 23.15679 -109.71920 369 ft 6 kts 348°
2026-04-29 21:07 23.15737 -109.71930 372 ft 6 kts 354°
2026-04-29 21:08 23.15780 -109.71935 370 ft 6 kts 356°
2026-04-29 21:08 23.15822 -109.71938 371 ft 6 kts 356°
2026-04-29 21:08 23.15863 -109.71944 372 ft 6 kts 352°
2026-04-29 21:08 23.15903 -109.71949 373 ft 6 kts 352°
2026-04-29 21:09 23.15942 -109.71955 374 ft 6 kts 354°
2026-04-29 21:09 23.15981 -109.71959 375 ft 6 kts 354°
2026-04-29 21:09 23.16020 -109.71963 375 ft 6 kts 354°
2026-04-29 21:09 23.16059 -109.71968 376 ft 6 kts 354°
2026-04-29 21:10 23.16098 -109.71972 377 ft 6 kts 354°
2026-04-29 21:10 23.16137 -109.71977 378 ft 6 kts 354°
2026-04-29 21:10 23.16176 -109.71981 379 ft 6 kts 355°
2026-04-29 21:10 23.16238 -109.71985 380 ft 11 kts 356°
2026-04-29 21:11 23.16311 -109.71992 382 ft 11 kts 355°
2026-04-29 21:11 23.16383 -109.72001 384 ft 10 kts 353°
2026-04-29 21:11 23.16454 -109.72010 385 ft 10 kts 353°
2026-04-29 21:11 23.16524 -109.72019 387 ft 10 kts 353°
2026-04-29 21:12 23.16560 -109.72058 388 ft 7 kts 278°
2026-04-29 21:12 23.16557 -109.72114 388 ft 8 kts 262°
2026-04-29 21:12 23.16555 -109.72126 388 ft 1 kts 262°
2026-04-29 21:12 23.16554 -109.72135 388 ft 0 kts 262°
2026-04-29 21:13 23.16553 -109.72145 388 ft 2 kts 262°
2026-04-29 21:13 23.16550 -109.72165 388 ft 4 kts 262°
2026-04-29 21:13 23.16546 -109.72198 389 ft 5 kts 263°
2026-04-29 21:13 23.16523 -109.72223 388 ft 6 kts 197°
2026-04-29 21:14 23.16464 -109.72227 386 ft 13 kts 180°
2026-04-29 21:14 23.16110 -109.72177 378 ft 95 kts 172°
2026-04-29 21:14 23.15207 -109.72070 364 ft 163 kts 173°
2026-04-29 21:14 23.13979 -109.71928 841 ft 183 kts 172°
2026-04-29 21:15 23.12735 -109.71792 1836 ft 179 kts 174°
2026-04-29 21:15 23.11489 -109.71652 2576 ft 182 kts 174°
2026-04-29 21:15 23.10170 -109.71503 2807 ft 201 kts 174°
2026-04-29 21:15 23.08701 -109.71336 2971 ft 223 kts 174°
2026-04-29 21:16 23.07092 -109.71155 3215 ft 244 kts 174°
2026-04-29 21:16 23.05323 -109.70965 3517 ft 266 kts 178°
2026-04-29 21:16 23.03529 -109.71346 4125 ft 272 kts 211°
2026-04-29 21:16 23.02209 -109.72787 4884 ft 273 kts 246°
2026-04-29 21:17 23.01861 -109.74783 5647 ft 272 kts 278°
2026-04-29 21:17 23.02582 -109.76662 6383 ft 274 kts 307°
2026-04-29 21:17 23.03865 -109.78206 7130 ft 277 kts 313°
2026-04-29 21:17 23.05216 -109.79708 7871 ft 280 kts 313°
2026-04-29 21:18 23.06583 -109.81227 8599 ft 283 kts 313°
2026-04-29 21:18 23.07966 -109.82763 9357 ft 286 kts 312°
2026-04-29 21:18 23.09268 -109.84412 10080 ft 288 kts 304°
2026-04-29 21:18 23.10431 -109.86236 10416 ft 304 kts 301°
2026-04-29 21:19 23.11598 -109.88246 10609 ft 324 kts 302°
2026-04-29 21:19 23.13040 -109.90182 11094 ft 335 kts 314°
2026-04-29 21:19 23.14906 -109.91743 11670 ft 343 kts 325°
2026-04-29 21:19 23.16938 -109.93129 12248 ft 347 kts 326°
2026-04-29 21:20 23.19006 -109.94500 12840 ft 350 kts 326°
2026-04-29 21:20 23.21109 -109.95874 13419 ft 355 kts 327°
2026-04-29 21:20 23.23231 -109.97258 13967 ft 358 kts 327°
2026-04-29 21:20 23.25376 -109.98662 14477 ft 361 kts 327°
2026-04-29 21:21 23.27534 -110.00081 14999 ft 364 kts 326°
2026-04-29 21:21 23.29708 -110.01520 15473 ft 367 kts 326°
2026-04-29 21:21 23.31867 -110.02957 15969 ft 370 kts 326°
2026-04-29 21:21 23.34101 -110.04450 16432 ft 376 kts 326°
2026-04-29 21:22 23.36344 -110.05951 16549 ft 390 kts 326°
2026-04-29 21:22 23.38702 -110.07522 16678 ft 404 kts 326°
2026-04-29 21:22 23.41138 -110.09143 16807 ft 417 kts 326°
2026-04-29 21:22 23.43654 -110.10819 16930 ft 430 kts 326°
2026-04-29 21:23 23.46233 -110.12539 17057 ft 440 kts 326°
2026-04-29 21:23 23.48870 -110.14298 17279 ft 447 kts 326°
2026-04-29 21:23 23.51540 -110.16078 17607 ft 451 kts 326°
2026-04-29 21:23 23.54122 -110.18017 17936 ft 451 kts 317°
2026-04-29 21:24 23.56383 -110.20385 18271 ft 452 kts 312°
2026-04-29 21:24 23.58617 -110.22804 18575 ft 454 kts 312°
2026-04-29 21:24 23.60865 -110.25235 18888 ft 456 kts 312°
2026-04-29 21:24 23.63124 -110.27678 19195 ft 458 kts 312°
2026-04-29 21:25 23.63885 -110.28501 19304 ft 458 kts 312°
2026-04-29 21:25 23.65346 -110.30082 19492 ft 460 kts 312°
2026-04-29 21:25 23.67625 -110.32548 19822 ft 461 kts 312°
2026-04-29 21:25 23.69904 -110.35020 20138 ft 463 kts 312°
2026-04-29 21:26 23.72189 -110.37502 20435 ft 464 kts 311°
2026-04-29 21:26 23.74484 -110.39993 20727 ft 466 kts 311°
2026-04-29 21:26 23.76760 -110.42461 21005 ft 468 kts 311°
2026-04-29 21:26 23.79073 -110.44966 21274 ft 469 kts 311°
2026-04-29 21:27 23.81391 -110.47475 21522 ft 471 kts 311°
2026-04-29 21:27 23.83719 -110.50001 21755 ft 472 kts 311°
2026-04-29 21:27 23.86049 -110.52536 21988 ft 473 kts 311°
2026-04-29 21:27 23.88384 -110.55078 22215 ft 475 kts 311°
2026-04-29 21:28 23.90756 -110.57608 22433 ft 477 kts 313°
2026-04-29 21:28 23.93223 -110.60042 22640 ft 480 kts 315°
2026-04-29 21:28 23.95778 -110.62408 22849 ft 482 kts 316°
2026-04-29 21:28 23.98375 -110.64733 23049 ft 484 kts 317°
2026-04-29 21:29 24.00988 -110.67055 23247 ft 485 kts 317°
2026-04-29 21:29 24.03596 -110.69399 23434 ft 486 kts 316°
2026-04-29 21:29 24.06194 -110.71773 23583 ft 487 kts 316°
2026-04-29 21:29 24.08781 -110.74173 23723 ft 488 kts 315°
2026-04-29 21:30 24.11359 -110.76592 23853 ft 489 kts 315°
2026-04-29 21:30 24.13948 -110.79031 23990 ft 490 kts 315°
2026-04-29 21:30 24.16504 -110.81433 24115 ft 491 kts 315°
2026-04-29 21:30 24.19099 -110.83867 24231 ft 492 kts 315°
2026-04-29 21:31 24.21701 -110.86302 24343 ft 493 kts 315°
2026-04-29 21:31 24.24342 -110.88766 24458 ft 493 kts 316°
2026-04-29 21:31 24.26927 -110.91172 24565 ft 494 kts 316°
2026-04-29 21:31 24.29540 -110.93607 24684 ft 494 kts 316°
2026-04-29 21:32 24.32154 -110.96048 24791 ft 494 kts 315°
2026-04-29 21:32 24.34772 -110.98496 24905 ft 494 kts 315°
2026-04-29 21:32 24.37387 -111.00947 25020 ft 494 kts 315°
2026-04-29 21:32 24.40002 -111.03399 25131 ft 495 kts 315°
2026-04-29 21:33 24.42618 -111.05850 25246 ft 495 kts 315°
2026-04-29 21:33 24.45233 -111.08302 25360 ft 495 kts 315°
2026-04-29 21:33 24.47846 -111.10754 25470 ft 494 kts 315°
2026-04-29 21:33 24.50460 -111.13209 25588 ft 494 kts 315°
2026-04-29 21:34 24.53072 -111.15663 25706 ft 494 kts 315°
2026-04-29 21:34 24.55686 -111.18119 25826 ft 494 kts 315°
2026-04-29 21:34 24.58298 -111.20576 25943 ft 494 kts 315°
2026-04-29 21:34 24.60902 -111.23031 26062 ft 494 kts 315°
2026-04-29 21:35 24.63510 -111.25491 26177 ft 494 kts 315°
2026-04-29 21:35 24.66116 -111.27948 26299 ft 493 kts 315°
2026-04-29 21:35 24.68722 -111.30402 26418 ft 493 kts 315°
2026-04-29 21:35 24.71325 -111.32854 26539 ft 493 kts 315°
2026-04-29 21:36 24.73930 -111.35311 26662 ft 493 kts 315°
2026-04-29 21:36 24.76529 -111.37766 26783 ft 492 kts 315°
2026-04-29 21:36 24.79124 -111.40217 26907 ft 492 kts 315°
2026-04-29 21:36 24.81687 -111.42640 27034 ft 492 kts 315°
2026-04-29 21:37 24.84316 -111.45129 27156 ft 492 kts 315°
2026-04-29 21:37 24.86908 -111.47588 27282 ft 491 kts 315°
2026-04-29 21:37 24.89495 -111.50041 27409 ft 491 kts 315°
2026-04-29 21:37 24.92052 -111.52463 27531 ft 491 kts 315°
2026-04-29 21:38 24.94645 -111.54921 27660 ft 491 kts 315°
2026-04-29 21:38 24.97232 -111.57374 27791 ft 491 kts 315°
2026-04-29 21:38 24.99818 -111.59828 27915 ft 491 kts 315°
2026-04-29 21:38 25.02404 -111.62284 28072 ft 490 kts 315°
2026-04-29 21:39 25.04946 -111.64696 28914 ft 473 kts 315°
2026-04-29 21:39 25.07401 -111.67020 29947 ft 459 kts 314°
2026-04-29 21:39 25.09811 -111.69308 30450 ft 455 kts 314°
2026-04-29 21:39 25.12205 -111.71588 30898 ft 452 kts 314°
2026-04-29 21:40 25.14574 -111.73845 31391 ft 448 kts 314°
2026-04-29 21:40 25.16928 -111.76091 31849 ft 446 kts 313°
2026-04-29 21:40 25.19265 -111.78326 32296 ft 443 kts 313°
2026-04-29 21:40 25.21589 -111.80546 32745 ft 441 kts 313°
2026-04-29 21:41 25.23904 -111.82754 33198 ft 439 kts 313°
2026-04-29 21:41 25.26213 -111.84956 33641 ft 437 kts 313°
2026-04-29 21:41 25.28506 -111.87144 34061 ft 435 kts 313°
2026-04-29 21:41 25.30852 -111.89269 34424 ft 438 kts 318°
2026-04-29 21:42 25.33355 -111.91185 34769 ft 438 kts 318°
2026-04-29 21:42 25.35861 -111.93092 35099 ft 436 kts 318°
2026-04-29 21:42 25.38357 -111.94991 35432 ft 435 kts 318°
2026-04-29 21:42 25.40846 -111.96885 35756 ft 434 kts 317°
2026-04-29 21:43 25.43329 -111.98778 35928 ft 433 kts 317°
2026-04-29 21:43 25.48254 -112.02546 35964 ft 432 kts 317°
2026-04-29 21:44 25.53230 -112.06358 35970 ft 432 kts 317°
2026-04-29 21:44 25.58179 -112.10138 35965 ft 432 kts 317°
2026-04-29 21:45 25.63086 -112.13889 35967 ft 432 kts 317°
2026-04-29 21:45 25.68029 -112.17679 35971 ft 432 kts 317°
2026-04-29 21:46 25.72973 -112.21470 35975 ft 432 kts 317°
2026-04-29 21:46 25.77918 -112.25263 35981 ft 432 kts 317°
2026-04-29 21:47 25.82861 -112.29062 35982 ft 432 kts 317°
2026-04-29 21:47 25.87801 -112.32862 35980 ft 432 kts 317°
2026-04-29 21:48 25.92736 -112.36661 35979 ft 431 kts 317°
2026-04-29 21:48 25.97668 -112.40462 35978 ft 431 kts 317°
2026-04-29 21:49 26.02565 -112.44239 35975 ft 431 kts 317°
2026-04-29 21:49 26.07497 -112.48044 35968 ft 432 kts 317°
2026-04-29 21:50 26.12431 -112.51865 35964 ft 432 kts 317°
2026-04-29 21:50 26.17366 -112.55697 35962 ft 433 kts 317°
2026-04-29 21:51 26.22317 -112.59537 35962 ft 434 kts 317°
2026-04-29 21:51 26.29751 -112.65307 35964 ft 435 kts 316°
2026-04-29 21:52 26.34721 -112.69171 35968 ft 435 kts 316°
2026-04-29 21:52 26.39693 -112.73037 35975 ft 436 kts 316°
2026-04-29 21:53 26.44672 -112.76907 35979 ft 436 kts 316°
2026-04-29 21:53 26.49650 -112.80789 35983 ft 436 kts 316°
2026-04-29 21:54 26.54596 -112.84648 35985 ft 437 kts 316°
2026-04-29 21:54 26.59572 -112.88535 35991 ft 436 kts 316°
2026-04-29 21:55 26.64542 -112.92432 35994 ft 436 kts 316°
2026-04-29 21:55 26.69512 -112.96324 35995 ft 436 kts 316°
2026-04-29 21:56 26.74492 -113.00219 35998 ft 436 kts 315°
2026-04-29 21:56 26.79468 -113.04109 35995 ft 436 kts 315°
2026-04-29 21:57 26.84479 -113.08064 35985 ft 448 kts 315°
2026-04-29 21:57 26.89639 -113.12141 35987 ft 459 kts 315°
2026-04-29 21:58 26.94896 -113.16270 35984 ft 462 kts 315°
2026-04-29 21:58 27.00129 -113.20382 35987 ft 462 kts 315°
2026-04-29 21:59 27.05387 -113.24527 35992 ft 462 kts 315°
2026-04-29 21:59 27.10634 -113.28677 36001 ft 461 kts 315°
2026-04-29 22:00 27.15879 -113.32828 36013 ft 462 kts 315°
2026-04-29 22:00 27.21129 -113.36985 36027 ft 462 kts 315°
2026-04-29 22:01 27.26379 -113.41142 36027 ft 461 kts 315°
2026-04-29 22:01 27.31623 -113.45296 36033 ft 461 kts 315°
2026-04-29 22:02 27.36831 -113.49439 36043 ft 461 kts 315°
2026-04-29 22:02 27.42062 -113.53613 36046 ft 461 kts 315°
2026-04-29 22:03 27.47292 -113.57789 36047 ft 461 kts 316°
2026-04-29 22:03 27.52531 -113.61965 36041 ft 462 kts 316°
2026-04-29 22:04 27.57776 -113.66147 36052 ft 462 kts 316°
2026-04-29 22:04 27.62140 -113.69634 36051 ft 462 kts 316°
2026-04-29 22:05 27.67389 -113.73847 36050 ft 463 kts 316°
2026-04-29 22:06 27.75279 -113.80161 36057 ft 464 kts 315°
2026-04-29 22:06 27.80505 -113.84358 36060 ft 464 kts 315°
2026-04-29 22:07 27.85773 -113.88589 36062 ft 465 kts 315°
2026-04-29 22:07 27.91042 -113.92822 36064 ft 465 kts 315°
2026-04-29 22:08 27.96311 -113.97066 36072 ft 465 kts 315°
2026-04-29 22:08 28.01572 -114.01315 36078 ft 465 kts 315°
2026-04-29 22:09 28.06901 -114.05498 36087 ft 467 kts 317°
2026-04-29 22:09 28.12366 -114.09521 36076 ft 469 kts 317°
2026-04-29 22:10 28.17839 -114.13524 36091 ft 468 kts 317°
2026-04-29 22:10 28.23237 -114.17548 36081 ft 467 kts 316°
2026-04-29 22:11 28.28652 -114.21618 36084 ft 467 kts 316°
2026-04-29 22:11 28.34065 -114.25690 36086 ft 466 kts 316°
2026-04-29 22:12 28.39465 -114.29745 36086 ft 466 kts 316°
2026-04-29 22:12 28.44884 -114.33814 36086 ft 466 kts 316°
2026-04-29 22:13 28.50287 -114.37874 36086 ft 465 kts 316°
2026-04-29 22:13 28.55633 -114.41923 36088 ft 464 kts 316°
2026-04-29 22:14 28.61011 -114.45992 36087 ft 464 kts 316°
2026-04-29 22:14 28.66393 -114.50044 36086 ft 464 kts 316°
2026-04-29 22:15 28.71771 -114.54095 36083 ft 463 kts 316°
2026-04-29 22:15 28.77132 -114.58151 36083 ft 462 kts 315°
2026-04-29 22:16 28.82480 -114.62212 36085 ft 462 kts 315°
2026-04-29 22:16 28.87824 -114.66284 36088 ft 461 kts 315°
2026-04-29 22:17 28.93169 -114.70346 36082 ft 461 kts 315°
2026-04-29 22:17 28.98511 -114.74404 36079 ft 461 kts 315°
2026-04-29 22:18 29.03806 -114.78446 36076 ft 461 kts 315°
2026-04-29 22:18 29.09134 -114.82517 36074 ft 461 kts 315°
2026-04-29 22:19 29.14460 -114.86591 36072 ft 461 kts 315°
2026-04-29 22:19 29.19784 -114.90662 36073 ft 460 kts 315°
2026-04-29 22:20 29.25112 -114.94743 36070 ft 460 kts 315°
2026-04-29 22:20 29.30433 -114.98823 36072 ft 460 kts 315°
2026-04-29 22:21 29.35750 -115.02901 36064 ft 460 kts 315°
2026-04-29 22:21 29.41063 -115.06995 36062 ft 460 kts 315°
2026-04-29 22:22 29.46367 -115.11087 36061 ft 460 kts 315°
2026-04-29 22:22 29.51681 -115.15185 36063 ft 459 kts 315°
2026-04-29 22:23 29.56983 -115.19280 36057 ft 459 kts 315°
2026-04-29 22:23 29.62276 -115.23373 36059 ft 458 kts 315°
2026-04-29 22:24 29.67567 -115.27468 36057 ft 458 kts 315°
2026-04-29 22:24 29.72854 -115.31559 36065 ft 458 kts 315°
2026-04-29 22:25 29.78133 -115.35656 36061 ft 458 kts 315°
2026-04-29 22:25 29.83376 -115.39734 36073 ft 458 kts 315°
2026-04-29 22:26 29.88649 -115.43836 36071 ft 457 kts 315°
2026-04-29 22:26 29.93928 -115.47949 36069 ft 458 kts 315°
2026-04-29 22:27 29.99210 -115.52071 36068 ft 459 kts 315°
2026-04-29 22:27 30.04493 -115.56198 36067 ft 459 kts 315°
2026-04-29 22:28 30.09792 -115.60342 36061 ft 460 kts 314°
2026-04-29 22:28 30.15093 -115.64496 36061 ft 461 kts 314°
2026-04-29 22:29 30.20415 -115.68666 36055 ft 462 kts 314°
2026-04-29 22:29 30.25735 -115.72842 36071 ft 463 kts 314°
2026-04-29 22:30 30.31023 -115.77004 36072 ft 463 kts 313°
2026-04-29 22:30 30.36343 -115.81197 36082 ft 463 kts 313°
2026-04-29 22:31 30.41667 -115.85395 36084 ft 463 kts 313°
2026-04-29 22:31 30.46998 -115.89598 36096 ft 463 kts 313°
2026-04-29 22:32 30.52321 -115.93802 36095 ft 463 kts 313°
2026-04-29 22:32 30.55083 -115.95797 36090 ft 475 kts 320°
2026-04-29 22:32 30.58114 -115.97420 36097 ft 482 kts 323°
2026-04-29 22:33 30.64257 -116.00558 36098 ft 483 kts 323°
2026-04-29 22:33 30.67294 -116.02112 35935 ft 484 kts 323°
2026-04-29 22:33 30.70361 -116.03687 35644 ft 482 kts 323°
2026-04-29 22:33 30.73439 -116.05276 35403 ft 483 kts 323°
2026-04-29 22:34 30.76511 -116.06866 35166 ft 484 kts 323°
2026-04-29 22:34 30.79588 -116.08456 34936 ft 485 kts 323°
2026-04-29 22:34 30.82670 -116.10050 34706 ft 485 kts 323°
2026-04-29 22:34 30.85759 -116.11651 34473 ft 486 kts 323°
2026-04-29 22:35 30.88851 -116.13253 34201 ft 487 kts 324°
2026-04-29 22:35 30.91953 -116.14859 33623 ft 488 kts 324°
2026-04-29 22:35 30.95050 -116.16463 33089 ft 488 kts 324°
2026-04-29 22:35 30.98151 -116.18071 32554 ft 487 kts 324°
2026-04-29 22:36 31.01247 -116.19678 32019 ft 486 kts 324°
2026-04-29 22:36 31.04335 -116.21283 31486 ft 485 kts 325°
2026-04-29 22:36 31.07414 -116.22883 30961 ft 484 kts 325°
2026-04-29 22:36 31.10486 -116.24476 30436 ft 483 kts 326°
2026-04-29 22:37 31.13548 -116.26065 29907 ft 481 kts 326°
2026-04-29 22:37 31.16606 -116.27654 29393 ft 481 kts 326°
2026-04-29 22:37 31.19665 -116.29249 28905 ft 482 kts 326°
2026-04-29 22:37 31.22728 -116.30849 28415 ft 483 kts 326°
2026-04-29 22:38 31.25758 -116.32433 27928 ft 484 kts 327°
2026-04-29 22:38 31.28833 -116.34041 27438 ft 485 kts 327°
2026-04-29 22:38 31.31918 -116.35652 26936 ft 487 kts 327°
2026-04-29 22:38 31.35015 -116.37268 26426 ft 487 kts 327°
2026-04-29 22:39 31.38104 -116.38878 25903 ft 483 kts 328°
2026-04-29 22:39 31.41124 -116.40450 25613 ft 466 kts 328°
2026-04-29 22:39 31.44026 -116.41952 25494 ft 446 kts 327°
2026-04-29 22:39 31.46810 -116.43395 25368 ft 430 kts 327°
2026-04-29 22:40 31.49493 -116.44793 25254 ft 415 kts 326°
2026-04-29 22:40 31.52081 -116.46150 25066 ft 399 kts 326°
2026-04-29 22:40 31.54586 -116.47470 24463 ft 391 kts 326°
2026-04-29 22:40 31.57046 -116.48771 23782 ft 384 kts 327°
2026-04-29 22:41 31.59462 -116.50052 22972 ft 380 kts 327°
2026-04-29 22:41 31.61860 -116.51323 22143 ft 375 kts 328°
2026-04-29 22:41 31.64230 -116.52577 21298 ft 370 kts 328°
2026-04-29 22:41 31.66561 -116.53806 20675 ft 361 kts 328°
2026-04-29 22:42 31.68814 -116.54985 20262 ft 348 kts 328°
2026-04-29 22:42 31.70958 -116.56107 19854 ft 336 kts 328°
2026-04-29 22:42 31.73053 -116.57208 19457 ft 325 kts 328°
2026-04-29 22:42 31.75082 -116.58278 19071 ft 315 kts 328°
2026-04-29 22:43 31.77071 -116.59333 18692 ft 313 kts 328°
2026-04-29 22:43 31.79064 -116.60396 18297 ft 315 kts 328°
2026-04-29 22:43 31.81086 -116.61441 17801 ft 320 kts 330°
2026-04-29 22:43 31.83152 -116.62425 17396 ft 320 kts 332°
2026-04-29 22:44 31.85229 -116.63370 17008 ft 320 kts 333°
2026-04-29 22:44 31.87313 -116.64305 16617 ft 321 kts 333°
2026-04-29 22:44 31.89396 -116.65243 16225 ft 321 kts 333°
2026-04-29 22:44 31.91483 -116.66186 15830 ft 322 kts 333°
2026-04-29 22:45 31.93573 -116.67138 15441 ft 322 kts 333°
2026-04-29 22:45 31.95666 -116.68096 15039 ft 323 kts 333°
2026-04-29 22:45 31.97756 -116.69062 14643 ft 324 kts 333°
2026-04-29 22:45 31.99855 -116.70037 14242 ft 324 kts 334°
2026-04-29 22:46 32.01956 -116.71013 13838 ft 324 kts 334°
2026-04-29 22:46 32.04055 -116.71987 13403 ft 324 kts 334°
2026-04-29 22:46 32.06151 -116.72957 13006 ft 323 kts 334°
2026-04-29 22:46 32.08245 -116.73924 12594 ft 322 kts 335°
2026-04-29 22:47 32.10331 -116.74889 12193 ft 322 kts 335°
2026-04-29 22:47 32.12385 -116.75845 11787 ft 321 kts 335°
2026-04-29 22:47 32.14456 -116.76728 11382 ft 312 kts 343°
2026-04-29 22:47 32.16582 -116.77016 10996 ft 305 kts 359°
2026-04-29 22:48 32.18650 -116.76633 10613 ft 299 kts 15°
2026-04-29 22:48 32.20545 -116.75702 10235 ft 290 kts 23°
2026-04-29 22:48 32.22362 -116.74709 9859 ft 289 kts 23°
2026-04-29 22:48 32.24198 -116.73718 9465 ft 291 kts 24°
2026-04-29 22:49 32.26044 -116.72725 9117 ft 292 kts 23°
2026-04-29 22:49 32.27887 -116.71732 8784 ft 291 kts 23°
2026-04-29 22:49 32.29735 -116.70735 8451 ft 292 kts 23°
2026-04-29 22:49 32.31559 -116.69750 8108 ft 283 kts 23°
2026-04-29 22:50 32.33310 -116.68801 7795 ft 271 kts 24°
2026-04-29 22:50 32.34990 -116.67889 7488 ft 261 kts 24°
2026-04-29 22:50 32.36609 -116.67010 7165 ft 251 kts 24°
2026-04-29 22:50 32.38173 -116.66159 6848 ft 244 kts 24°
2026-04-29 22:51 32.39693 -116.65341 6535 ft 236 kts 21°
2026-04-29 22:51 32.41261 -116.65064 6229 ft 226 kts 350°
2026-04-29 22:51 32.43574 -116.66993 5660 ft 202 kts 294°
2026-04-29 22:52 32.44132 -116.68476 5392 ft 193 kts 292°
2026-04-29 22:52 32.44637 -116.69821 5185 ft 185 kts 291°
2026-04-29 22:52 32.45153 -116.71183 4976 ft 179 kts 292°
2026-04-29 22:52 32.45650 -116.72501 4743 ft 171 kts 292°
2026-04-29 22:53 32.46103 -116.73705 4558 ft 161 kts 292°
2026-04-29 22:53 32.46544 -116.74879 4346 ft 150 kts 292°
2026-04-29 22:53 32.46960 -116.75990 4145 ft 145 kts 292°
2026-04-29 22:53 32.47366 -116.77075 3964 ft 144 kts 292°
2026-04-29 22:54 32.47771 -116.78153 3770 ft 142 kts 293°
2026-04-29 22:54 32.48172 -116.79220 3593 ft 141 kts 293°
2026-04-29 22:54 32.48561 -116.80261 3411 ft 139 kts 293°
2026-04-29 22:54 32.48953 -116.81310 3234 ft 138 kts 294°
2026-04-29 22:55 32.49342 -116.82349 3052 ft 138 kts 294°
2026-04-29 22:55 32.49731 -116.83386 2874 ft 138 kts 293°
2026-04-29 22:55 32.50113 -116.84406 2690 ft 137 kts 293°
2026-04-29 22:55 32.50486 -116.85398 2514 ft 135 kts 294°
2026-04-29 22:56 32.50869 -116.86416 2345 ft 134 kts 294°
2026-04-29 22:56 32.51248 -116.87424 2159 ft 134 kts 294°
2026-04-29 22:56 32.51626 -116.88429 1977 ft 133 kts 294°
2026-04-29 22:56 32.52003 -116.89431 1795 ft 133 kts 293°
2026-04-29 22:57 32.52379 -116.90432 1618 ft 133 kts 295°
2026-04-29 22:57 32.52754 -116.91432 1429 ft 133 kts 293°
2026-04-29 22:57 32.53129 -116.92432 1245 ft 132 kts 293°
2026-04-29 22:57 32.53498 -116.93428 1045 ft 132 kts 291°
2026-04-29 22:58 32.53757 -116.94459 724 ft 130 kts 279°
2026-04-29 22:58 32.53909 -116.95505 515 ft 127 kts 276°
2026-04-29 22:58 32.54013 -116.96364 476 ft 73 kts 278°
2026-04-29 22:58 32.54057 -116.96660 474 ft 19 kts 282°
2026-04-29 22:59 32.54081 -116.96792 477 ft 19 kts 282°
2026-04-29 22:59 32.54109 -116.96958 478 ft 21 kts 278°
2026-04-29 22:59 32.54130 -116.97135 475 ft 22 kts 283°
2026-04-29 22:59 32.54201 -116.97302 476 ft 20 kts 308°
2026-04-29 23:00 32.54257 -116.97377 470 ft 14 kts 315°
2026-04-29 23:00 32.54326 -116.97416 473 ft 12 kts 356°
2026-04-29 23:00 32.54383 -116.97481 472 ft 14 kts 285°
2026-04-29 23:00 32.54392 -116.97554 472 ft 9 kts 278°
2026-04-29 23:01 32.54419 -116.97590 471 ft 10 kts 335°
2026-04-29 23:01 32.54441 -116.97601 471 ft 1 kts 330°
2026-04-29 23:01 32.54455 -116.97616 471 ft 4 kts 314°
2026-04-29 23:01 32.54464 -116.97633 469 ft 0 kts 299°
2026-04-29 23:02 32.54469 -116.97643 470 ft 1 kts 299°
2026-04-29 23:02 32.54472 -116.97649 468 ft 2 kts 301°
2026-04-29 23:02 32.54474 -116.97652 469 ft 0 kts 301°